Simultaneous Nadir Overpasses (SNOs) Predictions

Prediction of SNOs between GOES-16 and AQUA Satellite Orbit:

Table of predicted SNOs for the next 14.0 days since TLE Epoch: 8/29/2025
Index Date Time (GOES-16) GOES-16 Lat,Lon AQUA Lat,Lon Distance(km) Time Diff (sec)
1 08/31/2025 09:48:13 -0.10,-104.69 -0.16,-104.50 21.81 80
2 09/02/2025 21:49:33 0.11,-104.67 0.20,-104.11 63.55 80
3 09/03/2025 10:08:38 -0.11,-104.68 0.75,-108.73 460.18 80
4 09/05/2025 09:45:23 -0.12,-104.67 -0.30,-103.68 111.80 80
5 09/05/2025 22:04:37 0.11,-104.65 -0.69,-108.33 418.35 80
6 09/07/2025 21:46:42 0.12,-104.65 0.41,-103.29 154.56 80
7 09/08/2025 10:05:47 -0.12,-104.66 0.57,-107.90 368.45 80
8 09/10/2025 09:42:31 -0.12,-104.65 -0.51,-102.86 204.56 80
9 09/10/2025 22:01:44 0.11,-104.63 -0.52,-107.49 325.69 80
